Slayton, MN

2:06 PM CDT on September 25, 2016 (GMT -0500)
Slayton

Weather History for KDVP - May, 2013

Change the Weather History Date:

Wednesday, May 15, 2013

  Actual Average (KOTG) Record (KOTG)
Temperature  
Mean Temperature 62 °F -  
Max Temperature 75 °F 64 °F 93 °F (2001)
Min Temperature 48 °F 44 °F 28 °F (1997)
Degree Days  
Heating Degree Days 4    
Growing Degree Days 12 (Base 50)    
Moisture  
Dew Point 40 °F    
Average Humidity 44    
Maximum Humidity 75    
Minimum Humidity 26    
Precipitation  
Precipitation 0.00 in - - ()
Sea Level Pressure  
Sea Level Pressure 29.92 in    
Wind  
Wind Speed 7 mph (NW)    
Max Wind Speed 14 mph    
Max Gust Speed 16 mph    
Visibility 10 miles    
Events Rain    
Averages and records for this station are not official NWS values.
T = Trace of Precipitation, MM = Missing Value Source: NWS Daily Summary

Daily Weather History Graph

Daily Weather History Graph

Search for Another Location

Airport or City:

Trip Planner

Search our weather history database for the weather conditions in past years. The results will help you decide how hot, cold, wet, or windy it might be!

Date:

Astronomy

May. 15, 2013 Rise Set
Actual Time 5:56 AM CDT 8:42 PM CDT
Civil Twilight 5:23 AM CDT 9:16 PM CDT
Nautical Twilight 4:41 AM CDT 9:58 PM CDT
Astronomical Twilight 3:52 AM CDT 10:47 PM CDT
Moon 10:35 AM CDT (5/15) 12:28 AM CDT (5/15)
Length of Visible Light 15h 53m
Length of Day
14h 46m
Waxing Crescent, 27% of the Moon is Illuminated
May 15
Waxing Crescent
May 17
First Quarter
May 24
Full
May 31
Last Quarter
Jun 8
New

Hourly Weather History & Observations

Time (CDT) Temp. Dew Point Humidity Pressure Visibility Wind Dir Wind Speed Gust Speed Precip Events Conditions
12:14 AM 62.6 °F 41.4 °F 46% 29.85 in 10.0 mi NNW 13.8 mph - N/A   Clear
12:33 AM 61.2 °F 41.4 °F 48% 29.86 in 10.0 mi NNW 12.7 mph - N/A   Clear
12:53 AM 60.3 °F 41.2 °F 49% 29.86 in 10.0 mi NNW 12.7 mph - N/A   Clear
1:33 AM 58.8 °F 41.2 °F 52% 29.86 in 10.0 mi NNW 12.7 mph - N/A   Clear
1:52 AM 58.3 °F 41.0 °F 53% 29.87 in 10.0 mi NNW 10.4 mph - N/A   Clear
2:14 AM 58.3 °F 41.0 °F 53% 29.87 in 10.0 mi NNW 12.7 mph - N/A   Clear
2:33 AM 57.7 °F 41.2 °F 54% 29.88 in 10.0 mi NNW 9.2 mph - N/A   Clear
2:53 AM 56.7 °F 41.0 °F 56% 29.88 in 10.0 mi NNW 10.4 mph - N/A   Clear
3:13 AM 56.3 °F 41.0 °F 57% 29.89 in 10.0 mi NNW 10.4 mph - N/A   Clear
3:33 AM 54.9 °F 41.0 °F 60% 29.89 in 10.0 mi NNW 10.4 mph - N/A   Clear
3:53 AM 53.4 °F 41.0 °F 63% 29.89 in 10.0 mi North 6.9 mph - N/A   Clear
4:14 AM 53.2 °F 40.6 °F 62% 29.90 in 10.0 mi NNW 4.6 mph - N/A   Clear
4:33 AM 50.7 °F 40.3 °F 67% 29.91 in 10.0 mi North 4.6 mph - N/A   Clear
4:54 AM 50.5 °F 39.7 °F 66% 29.91 in 10.0 mi WNW 3.5 mph - N/A   Clear
5:14 AM 50.0 °F 40.1 °F 69% 29.91 in 10.0 mi Calm Calm - N/A   Clear
5:33 AM 48.4 °F 40.8 °F 75% 29.92 in 10.0 mi NW 6.9 mph - N/A   Clear
5:53 AM 52.9 °F 41.5 °F 65% 29.91 in 10.0 mi North 9.2 mph - N/A   Clear
6:14 AM 54.9 °F 41.2 °F 60% 29.94 in 10.0 mi North 9.2 mph - N/A   Clear
6:34 AM 55.2 °F 41.4 °F 60% 29.96 in 10.0 mi NW 8.1 mph - N/A   Clear
6:53 AM 54.3 °F 41.4 °F 62% 29.95 in 10.0 mi North 5.8 mph - N/A   Clear
7:14 AM 54.7 °F 42.1 °F 62% 29.96 in 10.0 mi NNE 3.5 mph - N/A   Clear
7:33 AM 56.1 °F 41.5 °F 58% 29.96 in 10.0 mi Calm Calm - N/A   Clear
7:54 AM 56.5 °F 42.3 °F 59% 29.98 in 10.0 mi West 4.6 mph - N/A   Clear
8:13 AM 58.1 °F 41.0 °F 53% 29.98 in 10.0 mi Calm Calm - N/A   Clear
8:33 AM 59.0 °F 41.0 °F 51% 29.99 in 10.0 mi Calm Calm - N/A   Scattered Clouds
8:54 AM 59.9 °F 41.5 °F 51% 29.97 in 10.0 mi Calm Calm - N/A   Scattered Clouds
9:14 AM 61.7 °F 38.7 °F 43% 29.98 in 10.0 mi Calm Calm - N/A   Scattered Clouds
9:32 AM 61.9 °F 38.8 °F 43% 29.97 in 10.0 mi Calm Calm - N/A   Mostly Cloudy
9:54 AM 62.1 °F 40.6 °F 45% 29.97 in 10.0 mi Calm Calm - N/A Rain Light Rain
10:13 AM 63.0 °F 38.1 °F 40% 29.98 in 10.0 mi SW 3.5 mph - N/A   Mostly Cloudy
10:33 AM 63.9 °F 38.5 °F 39% 29.99 in 10.0 mi NW 4.6 mph - N/A   Mostly Cloudy
10:54 AM 64.0 °F 37.9 °F 38% 29.97 in 10.0 mi Calm Calm - N/A   Mostly Cloudy
11:13 AM 64.8 °F 37.8 °F 37% 29.99 in 10.0 mi SW 4.6 mph - N/A   Mostly Cloudy
11:33 AM 65.7 °F 39.6 °F 38% 30.00 in 10.0 mi NW 5.8 mph - N/A   Overcast
11:53 AM 65.5 °F 41.4 °F 41% 29.96 in 10.0 mi Calm Calm - N/A   Mostly Cloudy
12:14 PM 66.4 °F 43.7 °F 44% 29.94 in 10.0 mi SE 6.9 mph - N/A   Mostly Cloudy
12:52 PM 67.1 °F 41.7 °F 40% 29.94 in 10.0 mi Calm Calm - N/A   Mostly Cloudy
1:14 PM 69.1 °F 40.5 °F 35% 29.94 in 10.0 mi West 3.5 mph - N/A   Scattered Clouds
1:33 PM 70.0 °F 42.1 °F 36% 29.95 in 10.0 mi WNW 6.9 mph - N/A   Mostly Cloudy
1:53 PM 71.4 °F 41.5 °F 34% 29.95 in 10.0 mi NNW 3.5 mph - N/A   Scattered Clouds
2:14 PM 71.4 °F 41.7 °F 34% 29.95 in 10.0 mi NW 4.6 mph - N/A   Scattered Clouds
2:33 PM 72.1 °F 42.6 °F 34% 29.93 in 10.0 mi North 5.8 mph - N/A   Clear
2:54 PM 73.4 °F 41.4 °F 31% 29.94 in 10.0 mi Calm Calm - N/A   Clear
3:13 PM 73.4 °F 42.1 °F 32% 29.93 in 10.0 mi North 3.5 mph 16.1 mph N/A   Clear
3:33 PM 74.3 °F 42.4 °F 32% 29.93 in 10.0 mi North 4.6 mph - N/A   Clear
3:53 PM 74.8 °F 41.7 °F 30% 29.92 in 10.0 mi WNW 8.1 mph - N/A   Scattered Clouds
4:33 PM 75.2 °F 39.6 °F 28% 29.91 in 10.0 mi Calm Calm - N/A   Clear
4:53 PM 75.2 °F 39.0 °F 27% 29.91 in 10.0 mi NNW 8.1 mph - N/A   Clear
5:14 PM 75.0 °F 38.1 °F 26% 29.91 in 7.0 mi ENE 4.6 mph - N/A   Scattered Clouds
5:33 PM 75.4 °F 38.1 °F 26% 29.91 in 10.0 mi East 5.8 mph - N/A   Mostly Cloudy
5:53 PM 74.7 °F 37.2 °F 26% 29.91 in 10.0 mi Calm Calm - N/A   Mostly Cloudy
6:14 PM 75.2 °F 38.1 °F 26% 29.90 in 10.0 mi Calm Calm - N/A   Mostly Cloudy
6:32 PM 75.4 °F 37.8 °F 26% 29.90 in 10.0 mi Calm Calm - N/A   Clear
6:54 PM 75.2 °F 37.8 °F 26% 29.90 in 10.0 mi North 5.8 mph - N/A   Clear
7:13 PM 73.4 °F 36.7 °F 26% 29.90 in 10.0 mi West 5.8 mph - N/A   Clear
7:33 PM 73.2 °F 36.0 °F 26% 29.90 in 10.0 mi NNW 4.6 mph - N/A   Mostly Cloudy
7:53 PM 72.7 °F 36.0 °F 26% 29.90 in 10.0 mi NNW 4.6 mph - N/A   Overcast
8:14 PM 71.1 °F 36.5 °F 28% 29.90 in 10.0 mi NNW 5.8 mph - N/A   Overcast
8:33 PM 71.2 °F 35.2 °F 27% 29.90 in 10.0 mi NNW 4.6 mph - N/A   Overcast
8:52 PM 69.8 °F 36.7 °F 30% 29.90 in 10.0 mi NNW 4.6 mph - N/A   Overcast
9:13 PM 67.3 °F 38.1 °F 34% 29.90 in 10.0 mi NNW 3.5 mph - N/A   Mostly Cloudy
9:33 PM 65.3 °F 37.4 °F 36% 29.91 in 10.0 mi NW 3.5 mph - N/A   Scattered Clouds
9:53 PM 63.7 °F 39.0 °F 40% 29.91 in 10.0 mi WNW 4.6 mph - N/A   Clear
10:13 PM 63.0 °F 38.5 °F 40% 29.91 in 10.0 mi West 4.6 mph - N/A   Clear
10:33 PM 61.9 °F 38.3 °F 42% 29.91 in 10.0 mi West 4.6 mph - N/A   Clear
10:53 PM 59.0 °F 39.2 °F 48% 29.91 in 10.0 mi West 3.5 mph - N/A   Clear
11:13 PM 58.1 °F 39.2 °F 49% 29.91 in 10.0 mi West 4.6 mph - N/A   Clear
11:33 PM 58.1 °F 39.7 °F 50% 29.91 in 10.0 mi West 4.6 mph - N/A   Clear
11:54 PM 59.4 °F 39.9 °F 49% 29.92 in 10.0 mi NW 4.6 mph - N/A   Clear